Time,TemperatureF,DewpointF,PressureIn,WindDirection,WindDirectionDegrees,WindSpeedMPH,WindSpeedGustMPH,Humidity,HourlyPrecipIn,Conditions,Clouds,dailyrainin,SoftwareType,DateUTC
2013-05-01 00:05:00,52.1,37.3,30.02,North,350,5.0,13.0,57,0.00,,,0.00,Wunderground v.1.15,2013-05-01 05:05:00,
2013-05-01 00:10:00,52.0,37.2,30.01,North,10,6.0,6.0,57,0.00,,,0.00,Wunderground v.1.15,2013-05-01 05:10:00,
2013-05-01 00:20:00,51.7,37.4,30.02,NW,318,6.0,9.0,58,0.00,,,0.00,Wunderground v.1.15,2013-05-01 05:20:00,
2013-05-01 00:25:00,51.5,37.2,30.01,North,354,7.0,9.0,58,0.00,,,0.00,Wunderground v.1.15,2013-05-01 05:25:00,
2013-05-01 00:35:00,51.0,36.7,30.02,North,359,8.0,10.0,58,0.00,,,0.00,Wunderground v.1.15,2013-05-01 05:35:00,
2013-05-01 00:45:00,50.4,36.2,30.02,North,10,8.0,11.0,58,0.00,,,0.00,Wunderground v.1.15,2013-05-01 05:45:00,
2013-05-01 00:50:00,50.2,36.0,30.02,NNW,347,8.0,8.0,58,0.00,,,0.00,Wunderground v.1.15,2013-05-01 05:50:00,
2013-05-01 01:00:00,49.9,36.1,30.05,NNW,335,7.0,8.0,59,0.00,,,0.00,Wunderground v.1.15,2013-05-01 06:00:00,
2013-05-01 01:05:00,49.7,35.5,30.05,NW,326,7.0,9.0,58,0.00,,,0.00,Wunderground v.1.15,2013-05-01 06:05:00,
2013-05-01 01:15:00,49.5,35.8,30.05,NNW,327,6.0,6.0,59,0.00,,,0.00,Wunderground v.1.15,2013-05-01 06:15:00,
2013-05-01 01:20:00,49.3,36.0,30.07,NW,310,6.0,6.0,60,0.00,,,0.00,Wunderground v.1.15,2013-05-01 06:20:00,
2013-05-01 01:30:00,49.1,36.6,30.09,NNW,341,5.0,5.0,62,0.00,,,0.00,Wunderground v.1.15,2013-05-01 06:30:00,
2013-05-01 01:35:00,48.8,36.4,30.09,NNW,331,5.0,7.0,62,0.00,,,0.00,Wunderground v.1.15,2013-05-01 06:35:00,
2013-05-01 01:45:00,48.5,36.5,30.11,NW,323,6.0,8.0,63,0.00,,,0.00,Wunderground v.1.15,2013-05-01 06:45:00,
2013-05-01 01:55:00,48.0,36.0,30.10,NNW,332,6.0,6.0,63,0.00,,,0.00,Wunderground v.1.15,2013-05-01 06:55:00,
2013-05-01 02:00:00,47.7,35.7,30.11,North,9,6.0,6.0,63,0.00,,,0.00,Wunderground v.1.15,2013-05-01 07:00:00,
2013-05-01 02:05:00,47.3,34.5,30.11,WNW,286,7.0,10.0,61,0.00,,,0.00,Wunderground v.1.15,2013-05-01 07:05:00,
2013-05-01 02:15:00,46.7,34.0,30.11,WNW,297,8.0,9.0,61,0.00,,,0.00,Wunderground v.1.15,2013-05-01 07:15:00,
2013-05-01 02:20:00,46.5,33.8,30.11,NW,310,7.0,7.0,61,0.00,,,0.00,Wunderground v.1.15,2013-05-01 07:20:00,
2013-05-01 02:30:00,46.2,33.9,30.11,NNW,347,6.0,6.0,62,0.00,,,0.00,Wunderground v.1.15,2013-05-01 07:30:00,
2013-05-01 02:40:00,45.6,32.1,30.11,NNW,348,7.0,13.0,59,0.00,,,0.00,Wunderground v.1.15,2013-05-01 07:40:00,
2013-05-01 02:50:00,45.2,31.3,30.11,NNE,29,7.0,11.0,58,0.00,,,0.00,Wunderground v.1.15,2013-05-01 07:50:00,
2013-05-01 03:00:00,44.6,30.3,30.12,NNW,332,7.0,7.0,57,0.00,,,0.00,Wunderground v.1.15,2013-05-01 08:00:00,
2013-05-01 03:05:00,44.4,30.5,30.12,NNW,330,6.0,9.0,58,0.00,,,0.00,Wunderground v.1.15,2013-05-01 08:05:00,
2013-05-01 03:15:00,43.6,31.0,30.11,NNW,333,7.0,7.0,61,0.00,,,0.00,Wunderground v.1.15,2013-05-01 08:15:00,
2013-05-01 03:20:00,43.3,31.1,30.11,North,354,6.0,6.0,62,0.00,,,0.00,Wunderground v.1.15,2013-05-01 08:20:00,
2013-05-01 03:30:00,43.3,31.5,30.12,NNW,344,4.0,10.0,63,0.00,,,0.00,Wunderground v.1.15,2013-05-01 08:30:00,
2013-05-01 03:35:00,43.3,31.1,30.12,WNW,298,4.0,10.0,62,0.00,,,0.00,Wunderground v.1.15,2013-05-01 08:35:00,
2013-05-01 03:45:00,43.1,31.0,30.12,WNW,293,4.0,5.0,62,0.00,,,0.00,Wunderground v.1.15,2013-05-01 08:45:00,
2013-05-01 03:55:00,42.8,31.1,30.13,NNW,337,5.0,5.0,63,0.00,,,0.00,Wunderground v.1.15,2013-05-01 08:55:00,
2013-05-01 04:00:00,42.7,31.0,30.13,WNW,289,4.0,4.0,63,0.00,,,0.00,Wunderground v.1.15,2013-05-01 09:00:00,
2013-05-01 04:05:00,42.6,31.3,30.14,North,359,4.0,4.0,64,0.00,,,0.00,Wunderground v.1.15,2013-05-01 09:05:00,
2013-05-01 04:15:00,42.4,31.1,30.13,NW,310,4.0,7.0,64,0.00,,,0.00,Wunderground v.1.15,2013-05-01 09:15:00,
2013-05-01 04:25:00,42.3,31.7,30.14,North,4,3.0,4.0,66,0.00,,,0.00,Wunderground v.1.15,2013-05-01 09:25:00,
2013-05-01 04:35:00,42.1,31.9,30.16,NNW,337,4.0,7.0,67,0.00,,,0.00,Wunderground v.1.15,2013-05-01 09:35:00,
2013-05-01 04:40:00,42.0,31.8,30.16,NW,318,4.0,5.0,67,0.00,,,0.00,Wunderground v.1.15,2013-05-01 09:40:00,
2013-05-01 04:50:00,41.7,32.3,30.17,NW,305,4.0,4.0,69,0.00,,,0.00,Wunderground v.1.15,2013-05-01 09:50:00,
2013-05-01 05:00:00,41.5,32.1,30.19,North,350,4.0,4.0,69,0.00,,,0.00,Wunderground v.1.15,2013-05-01 10:00:00,
2013-05-01 05:05:00,41.2,31.4,30.19,NNW,341,4.0,4.0,68,0.00,,,0.00,Wunderground v.1.15,2013-05-01 10:05:00,
2013-05-01 05:15:00,40.7,31.0,30.19,NNW,329,5.0,6.0,68,0.00,,,0.00,Wunderground v.1.15,2013-05-01 10:15:00,
2013-05-01 05:20:00,40.4,30.7,30.20,NNW,328,6.0,8.0,68,0.00,,,0.00,Wunderground v.1.15,2013-05-01 10:20:00,
2013-05-01 05:30:00,40.2,30.5,30.20,WNW,293,5.0,5.0,68,0.00,,,0.00,Wunderground v.1.15,2013-05-01 10:30:00,
2013-05-01 05:35:00,40.1,30.4,30.20,NNW,347,3.0,5.0,68,0.00,,,0.00,Wunderground v.1.15,2013-05-01 10:35:00,
2013-05-01 05:45:00,39.9,30.5,30.22,NW,310,3.0,5.0,69,0.00,,,0.00,Wunderground v.1.15,2013-05-01 10:45:00,
2013-05-01 05:50:00,39.8,30.5,30.22,NW,318,3.0,3.0,69,0.00,,,0.00,Wunderground v.1.15,2013-05-01 10:50:00,
2013-05-01 06:00:00,39.7,30.7,30.23,NW,322,4.0,4.0,70,0.00,,,0.00,Wunderground v.1.15,2013-05-01 11:00:00,
2013-05-01 06:05:00,39.6,30.6,30.24,North,4,4.0,5.0,70,0.00,,,0.00,Wunderground v.1.15,2013-05-01 11:05:00,
2013-05-01 06:15:00,39.6,31.0,30.25,NW,316,4.0,4.0,71,0.00,,,0.00,Wunderground v.1.15,2013-05-01 11:15:00,
2013-05-01 06:20:00,39.6,31.0,30.26,WNW,286,4.0,6.0,71,0.00,,,0.00,Wunderground v.1.15,2013-05-01 11:20:00,
2013-05-01 06:25:00,39.5,31.2,30.27,WNW,302,5.0,8.0,72,0.00,,,0.00,Wunderground v.1.15,2013-05-01 11:25:00,
2013-05-01 06:30:00,39.4,31.5,30.28,WNW,291,5.0,5.0,73,0.00,,,0.00,Wunderground v.1.15,2013-05-01 11:30:00,
2013-05-01 06:40:00,38.5,32.6,30.29,West,268,6.0,8.0,79,0.00,,,0.00,Wunderground v.1.15,2013-05-01 11:40:00,
2013-05-01 06:45:00,37.5,32.5,30.31,West,268,6.0,8.0,82,0.00,,,0.00,Wunderground v.1.15,2013-05-01 11:45:00,
2013-05-01 06:50:00,36.8,32.4,30.31,West,276,6.0,6.0,84,0.00,,,0.00,Wunderground v.1.15,2013-05-01 11:50:00,
2013-05-01 07:00:00,35.4,31.9,30.31,NW,319,3.0,3.0,87,0.09,,,0.02,Wunderground v.1.15,2013-05-01 12:00:00,
2013-05-01 07:05:00,35.0,31.8,30.31,WNW,299,3.0,3.0,88,0.07,,,0.02,Wunderground v.1.15,2013-05-01 12:05:00,
2013-05-01 07:15:00,34.3,31.7,30.31,NW,310,3.0,3.0,90,0.06,,,0.03,Wunderground v.1.15,2013-05-01 12:15:00,
2013-05-01 07:20:00,34.0,31.4,30.32,NW,325,2.0,2.0,90,0.06,,,0.04,Wunderground v.1.15,2013-05-01 12:20:00,
2013-05-01 07:25:00,33.9,31.6,30.31,NW,312,3.0,4.0,91,0.06,,,0.04,Wunderground v.1.15,2013-05-01 12:25:00,
2013-05-01 07:30:00,33.8,31.7,30.32,NW,322,4.0,6.0,92,0.05,,,0.04,Wunderground v.1.15,2013-05-01 12:30:00,
2013-05-01 07:35:00,33.7,31.6,30.32,WNW,288,4.0,6.0,92,0.04,,,0.05,Wunderground v.1.15,2013-05-01 12:35:00,
2013-05-01 07:45:00,33.6,31.5,30.33,WNW,291,2.0,3.0,92,0.07,,,0.06,Wunderground v.1.15,2013-05-01 12:45:00,
2013-05-01 07:50:00,33.5,31.4,30.33,WNW,293,3.0,4.0,92,0.06,,,0.07,Wunderground v.1.15,2013-05-01 12:50:00,
2013-05-01 07:55:00,33.5,31.7,30.33,WNW,288,3.0,4.0,93,0.06,,,0.07,Wunderground v.1.15,2013-05-01 12:55:00,
2013-05-01 08:05:00,33.6,31.8,30.34,NW,316,4.0,5.0,93,0.05,,,0.08,Wunderground v.1.15,2013-05-01 13:05:00,
2013-05-01 08:15:00,33.6,32.1,30.34,WNW,297,4.0,5.0,94,0.05,,,0.08,Wunderground v.1.15,2013-05-01 13:15:00,
2013-05-01 08:20:00,33.6,32.1,30.34,NW,306,4.0,4.0,94,0.00,,,0.08,Wunderground v.1.15,2013-05-01 13:20:00,
2013-05-01 08:25:00,33.5,31.7,30.34,NNW,346,3.0,5.0,93,0.00,,,0.08,Wunderground v.1.15,2013-05-01 13:25:00,
2013-05-01 08:35:00,33.4,31.9,30.33,NW,322,4.0,7.0,94,0.00,,,0.09,Wunderground v.1.15,2013-05-01 13:35:00,
2013-05-01 08:40:00,33.4,31.9,30.33,NW,320,3.0,4.0,94,0.00,,,0.09,Wunderground v.1.15,2013-05-01 13:40:00,
2013-05-01 08:45:00,33.5,32.0,30.34,WNW,302,3.0,4.0,94,0.00,,,0.09,Wunderground v.1.15,2013-05-01 13:45:00,
2013-05-01 08:50:00,33.5,32.0,30.35,West,272,4.0,5.0,94,0.00,,,0.09,Wunderground v.1.15,2013-05-01 13:50:00,
2013-05-01 09:00:00,33.4,31.9,30.35,NW,314,4.0,4.0,94,0.00,,,0.09,Wunderground v.1.15,2013-05-01 14:00:00,
2013-05-01 09:05:00,33.3,31.8,30.35,NW,313,4.0,4.0,94,0.00,,,0.09,Wunderground v.1.15,2013-05-01 14:05:00,
2013-05-01 09:15:00,33.4,31.9,30.36,WNW,289,4.0,5.0,94,0.00,,,0.09,Wunderground v.1.15,2013-05-01 14:15:00,
2013-05-01 09:20:00,33.3,31.8,30.35,WNW,283,4.0,5.0,94,0.00,,,0.09,Wunderground v.1.15,2013-05-01 14:20:00,
2013-05-01 09:25:00,33.4,31.9,30.35,NW,326,3.0,5.0,94,0.00,,,0.09,Wunderground v.1.15,2013-05-01 14:25:00,
2013-05-01 09:35:00,33.4,31.6,30.34,NW,318,3.0,5.0,93,0.00,,,0.09,Wunderground v.1.15,2013-05-01 14:35:00,
2013-05-01 09:45:00,33.7,31.6,30.35,NW,318,2.0,3.0,92,0.00,,,0.09,Wunderground v.1.15,2013-05-01 14:45:00,
2013-05-01 09:50:00,33.9,31.6,30.35,NW,311,2.0,2.0,91,0.00,,,0.09,Wunderground v.1.15,2013-05-01 14:50:00,
2013-05-01 10:00:00,34.4,31.5,30.34,NNW,329,2.0,5.0,89,0.00,,,0.09,Wunderground v.1.15,2013-05-01 15:00:00,
2013-05-01 10:05:00,34.7,30.9,30.34,NNW,332,3.0,6.0,86,0.00,,,0.09,Wunderground v.1.15,2013-05-01 15:05:00,
2013-05-01 10:15:00,35.0,29.1,30.34,NW,316,5.0,7.0,79,0.00,,,0.09,Wunderground v.1.15,2013-05-01 15:15:00,
2013-05-01 10:25:00,34.9,28.4,30.36,NNW,335,4.0,5.0,77,0.00,,,0.09,Wunderground v.1.15,2013-05-01 15:25:00,
2013-05-01 10:35:00,35.0,28.8,30.38,NNW,333,4.0,5.0,78,0.00,,,0.09,Wunderground v.1.15,2013-05-01 15:35:00,
2013-05-01 10:45:00,35.1,28.9,30.39,NW,326,4.0,8.0,78,0.00,,,0.09,Wunderground v.1.15,2013-05-01 15:45:00,
2013-05-01 10:50:00,35.1,28.9,30.40,NNW,333,5.0,5.0,78,0.00,,,0.09,Wunderground v.1.15,2013-05-01 15:50:00,
2013-05-01 11:00:00,35.2,28.4,30.40,NW,313,5.0,6.0,76,0.00,,,0.09,Wunderground v.1.15,2013-05-01 16:00:00,
2013-05-01 11:05:00,35.2,28.1,30.40,WNW,289,6.0,6.0,75,0.00,,,0.10,Wunderground v.1.15,2013-05-01 16:05:00,
2013-05-01 11:15:00,35.5,28.7,30.40,NW,305,6.0,6.0,76,0.00,,,0.10,Wunderground v.1.15,2013-05-01 16:15:00,
2013-05-01 11:25:00,35.8,29.0,30.40,NW,310,5.0,7.0,76,0.00,,,0.10,Wunderground v.1.15,2013-05-01 16:25:00,
2013-05-01 11:35:00,36.3,28.5,30.40,NW,316,5.0,5.0,73,0.00,,,0.10,Wunderground v.1.15,2013-05-01 16:35:00,
2013-05-01 11:40:00,36.5,29.3,30.39,WNW,301,5.0,5.0,75,0.00,,,0.10,Wunderground v.1.15,2013-05-01 16:40:00,
2013-05-01 11:50:00,36.8,28.6,30.40,NNE,12,5.0,5.0,72,0.00,,,0.10,Wunderground v.1.15,2013-05-01 16:50:00,
2013-05-01 12:00:00,37.3,29.1,30.40,NNW,333,4.0,4.0,72,0.00,,,0.10,Wunderground v.1.15,2013-05-01 17:00:00,
2013-05-01 12:05:00,37.5,28.2,30.40,NW,304,4.0,5.0,69,0.00,,,0.10,Wunderground v.1.15,2013-05-01 17:05:00,
2013-05-01 12:15:00,37.1,27.5,30.40,NW,325,6.0,6.0,68,0.00,,,0.10,Wunderground v.1.15,2013-05-01 17:15:00,
2013-05-01 12:20:00,37.5,28.6,30.40,NNW,331,5.0,5.0,70,0.00,,,0.10,Wunderground v.1.15,2013-05-01 17:20:00,
2013-05-01 12:30:00,37.9,27.9,30.40,NW,325,4.0,5.0,67,0.00,,,0.10,Wunderground v.1.15,2013-05-01 17:30:00,
2013-05-01 12:40:00,38.2,27.8,30.41,West,280,4.0,5.0,66,0.00,,,0.10,Wunderground v.1.15,2013-05-01 17:40:00,
2013-05-01 12:45:00,38.4,28.4,30.41,NNW,346,6.0,6.0,67,0.00,,,0.10,Wunderground v.1.15,2013-05-01 17:45:00,
2013-05-01 12:55:00,38.6,27.8,30.41,NNE,18,5.0,5.0,65,0.00,,,0.10,Wunderground v.1.15,2013-05-01 17:55:00,
2013-05-01 13:00:00,38.6,27.8,30.41,NW,317,6.0,6.0,65,0.00,,,0.10,Wunderground v.1.15,2013-05-01 18:00:00,
2013-05-01 13:05:00,38.7,27.6,30.41,NW,318,5.0,6.0,64,0.00,,,0.10,Wunderground v.1.15,2013-05-01 18:05:00,
2013-05-01 13:15:00,38.9,28.5,30.41,NW,307,5.0,5.0,66,0.00,,,0.10,Wunderground v.1.15,2013-05-01 18:15:00,
2013-05-01 13:20:00,39.2,28.4,30.41,NNE,23,5.0,6.0,65,0.00,,,0.10,Wunderground v.1.15,2013-05-01 18:20:00,
2013-05-01 13:30:00,39.5,27.9,30.42,NW,312,6.0,6.0,63,0.00,,,0.10,Wunderground v.1.15,2013-05-01 18:30:00,
2013-05-01 13:40:00,40.1,28.9,30.42,NNW,335,5.0,5.0,64,0.00,,,0.10,Wunderground v.1.15,2013-05-01 18:40:00,
2013-05-01 13:50:00,39.9,27.5,30.43,NNE,24,7.0,7.0,61,0.00,,,0.10,Wunderground v.1.15,2013-05-01 18:50:00,
2013-05-01 13:55:00,40.2,29.0,30.43,NNW,328,7.0,7.0,64,0.00,,,0.10,Wunderground v.1.15,2013-05-01 18:55:00,
2013-05-01 14:05:00,39.6,27.6,30.43,North,4,7.0,10.0,62,0.00,,,0.10,Wunderground v.1.15,2013-05-01 19:05:00,
2013-05-01 14:15:00,39.7,28.1,30.43,North,359,7.0,10.0,63,0.00,,,0.10,Wunderground v.1.15,2013-05-01 19:15:00,
2013-05-01 14:25:00,39.8,28.2,30.43,NNE,15,8.0,10.0,63,0.00,,,0.10,Wunderground v.1.15,2013-05-01 19:25:00,
2013-05-01 14:30:00,40.0,28.8,30.43,WNW,293,7.0,7.0,64,0.00,,,0.10,Wunderground v.1.15,2013-05-01 19:30:00,
2013-05-01 14:40:00,40.5,28.5,30.43,North,4,6.0,11.0,62,0.00,,,0.10,Wunderground v.1.15,2013-05-01 19:40:00,
2013-05-01 14:45:00,40.7,28.3,30.43,North,349,7.0,11.0,61,0.00,,,0.10,Wunderground v.1.15,2013-05-01 19:45:00,
2013-05-01 14:55:00,41.2,29.5,30.43,NNE,17,6.0,9.0,63,0.00,,,0.10,Wunderground v.1.15,2013-05-01 19:55:00,
2013-05-01 15:05:00,41.3,28.9,30.43,NNE,19,8.0,8.0,61,0.00,,,0.10,Wunderground v.1.15,2013-05-01 20:05:00,
2013-05-01 15:15:00,41.4,29.3,30.43,NNW,328,7.0,7.0,62,0.00,,,0.10,Wunderground v.1.15,2013-05-01 20:15:00,
2013-05-01 15:25:00,41.5,29.0,30.44,NNE,18,7.0,14.0,61,0.00,,,0.10,Wunderground v.1.15,2013-05-01 20:25:00,
2013-05-01 15:30:00,41.5,29.4,30.44,North,354,8.0,8.0,62,0.00,,,0.10,Wunderground v.1.15,2013-05-01 20:30:00,
2013-05-01 15:40:00,41.8,30.1,30.43,NW,313,8.0,9.0,63,0.00,,,0.10,Wunderground v.1.15,2013-05-01 20:40:00,
2013-05-01 15:50:00,42.2,29.7,30.44,NNW,331,7.0,7.0,61,0.00,,,0.10,Wunderground v.1.15,2013-05-01 20:50:00,
2013-05-01 15:55:00,42.4,29.9,30.45,WNW,302,7.0,8.0,61,0.00,,,0.10,Wunderground v.1.15,2013-05-01 20:55:00,
2013-05-01 16:05:00,42.0,29.1,30.44,NNW,343,9.0,17.0,60,0.00,,,0.10,Wunderground v.1.15,2013-05-01 21:05:00,
2013-05-01 16:15:00,42.1,29.2,30.45,NW,324,9.0,9.0,60,0.00,,,0.10,Wunderground v.1.15,2013-05-01 21:15:00,
2013-05-01 16:25:00,42.2,28.0,30.47,NNE,18,8.0,9.0,57,0.00,,,0.10,Wunderground v.1.15,2013-05-01 21:25:00,
2013-05-01 16:35:00,42.1,28.8,30.47,North,4,8.0,9.0,59,0.00,,,0.10,Wunderground v.1.15,2013-05-01 21:35:00,
2013-05-01 16:40:00,42.2,28.0,30.47,North,4,8.0,11.0,57,0.00,,,0.10,Wunderground v.1.15,2013-05-01 21:40:00,
2013-05-01 16:50:00,42.1,27.9,30.47,NNE,31,9.0,9.0,57,0.00,,,0.10,Wunderground v.1.15,2013-05-01 21:50:00,
2013-05-01 16:55:00,42.2,28.9,30.47,NNW,343,8.0,10.0,59,0.00,,,0.10,Wunderground v.1.15,2013-05-01 21:55:00,
2013-05-01 17:05:00,42.4,28.2,30.47,North,359,8.0,13.0,57,0.00,,,0.10,Wunderground v.1.15,2013-05-01 22:05:00,
2013-05-01 17:15:00,42.5,28.3,30.47,North,359,8.0,11.0,57,0.00,,,0.10,Wunderground v.1.15,2013-05-01 22:15:00,
2013-05-01 17:25:00,42.3,28.6,30.48,North,359,9.0,12.0,58,0.00,,,0.10,Wunderground v.1.15,2013-05-01 22:25:00,
2013-05-01 17:30:00,42.4,28.7,30.48,North,4,7.0,11.0,58,0.00,,,0.10,Wunderground v.1.15,2013-05-01 22:30:00,
2013-05-01 17:40:00,42.5,28.8,30.49,NNE,27,8.0,8.0,58,0.00,,,0.10,Wunderground v.1.15,2013-05-01 22:40:00,
2013-05-01 17:45:00,42.7,28.5,30.49,NNW,335,8.0,9.0,57,0.00,,,0.10,Wunderground v.1.15,2013-05-01 22:45:00,
2013-05-01 17:55:00,42.5,28.8,30.49,North,354,8.0,13.0,58,0.00,,,0.10,Wunderground v.1.15,2013-05-01 22:55:00,
2013-05-01 18:00:00,42.5,28.8,30.49,North,354,8.0,8.0,58,0.00,,,0.10,Wunderground v.1.15,2013-05-01 23:00:00,
2013-05-01 18:05:00,42.6,28.8,30.50,NNE,14,8.0,8.0,58,0.00,,,0.10,Wunderground v.1.15,2013-05-01 23:05:00,
2013-05-01 18:15:00,43.0,29.2,30.50,NNE,14,8.0,8.0,58,0.00,,,0.10,Wunderground v.1.15,2013-05-01 23:15:00,
2013-05-01 18:20:00,43.1,28.9,30.50,North,354,8.0,8.0,57,0.00,,,0.10,Wunderground v.1.15,2013-05-01 23:20:00,
2013-05-01 18:30:00,42.9,29.1,30.50,North,349,7.0,8.0,58,0.00,,,0.10,Wunderground v.1.15,2013-05-01 23:30:00,
2013-05-01 18:40:00,42.7,28.9,30.50,NNE,21,7.0,7.0,58,0.00,,,0.10,Wunderground v.1.15,2013-05-01 23:40:00,
2013-05-01 18:50:00,42.5,29.2,30.51,NW,321,7.0,7.0,59,0.00,,,0.10,Wunderground v.1.15,2013-05-01 23:50:00,
2013-05-01 19:00:00,42.6,29.3,30.51,North,359,7.0,8.0,59,0.00,,,0.10,Wunderground v.1.15,2013-05-02 00:00:00,
2013-05-01 19:05:00,42.7,29.8,30.52,NNE,17,5.0,8.0,60,0.00,,,0.10,Wunderground v.1.15,2013-05-02 00:05:00,
2013-05-01 19:15:00,42.7,29.4,30.52,NNE,16,6.0,6.0,59,0.00,,,0.10,Wunderground v.1.15,2013-05-02 00:15:00,
2013-05-01 19:20:00,42.7,29.4,30.52,NNW,343,6.0,7.0,59,0.00,,,0.10,Wunderground v.1.15,2013-05-02 00:20:00,
2013-05-01 19:30:00,42.5,29.6,30.52,North,8,6.0,9.0,60,0.00,,,0.10,Wunderground v.1.15,2013-05-02 00:30:00,
2013-05-01 19:40:00,42.4,28.7,30.52,NNW,337,7.0,11.0,58,0.00,,,0.10,Wunderground v.1.15,2013-05-02 00:40:00,
2013-05-01 19:45:00,42.5,28.8,30.52,North,4,7.0,11.0,58,0.00,,,0.10,Wunderground v.1.15,2013-05-02 00:45:00,
2013-05-01 19:55:00,42.4,28.7,30.51,NNE,26,7.0,12.0,58,0.00,,,0.10,Wunderground v.1.15,2013-05-02 00:55:00,
2013-05-01 20:00:00,42.4,28.7,30.52,NNE,13,7.0,9.0,58,0.00,,,0.10,Wunderground v.1.15,2013-05-02 01:00:00,
2013-05-01 20:05:00,42.4,28.7,30.53,NNW,344,7.0,9.0,58,0.00,,,0.10,Wunderground v.1.15,2013-05-02 01:05:00,
2013-05-01 20:15:00,42.5,29.2,30.53,North,9,6.0,7.0,59,0.00,,,0.10,Wunderground v.1.15,2013-05-02 01:15:00,
2013-05-01 20:20:00,42.5,30.0,30.53,NNE,16,6.0,11.0,61,0.00,,,0.10,Wunderground v.1.15,2013-05-02 01:20:00,
2013-05-01 20:30:00,42.4,28.2,30.53,NNE,26,8.0,8.0,57,0.00,,,0.10,Wunderground v.1.15,2013-05-02 01:30:00,
2013-05-01 20:40:00,42.4,28.2,30.54,North,4,7.0,7.0,57,0.00,,,0.10,Wunderground v.1.15,2013-05-02 01:40:00,
2013-05-01 20:45:00,42.4,28.2,30.54,North,354,7.0,7.0,57,0.00,,,0.10,Wunderground v.1.15,2013-05-02 01:45:00,
2013-05-01 20:55:00,42.4,28.7,30.55,NNW,336,6.0,9.0,58,0.00,,,0.10,Wunderground v.1.15,2013-05-02 01:55:00,
2013-05-01 21:00:00,42.4,28.7,30.55,NW,319,6.0,6.0,58,0.00,,,0.10,Wunderground v.1.15,2013-05-02 02:00:00,
2013-05-01 21:05:00,42.4,29.1,30.55,NNW,336,6.0,6.0,59,0.00,,,0.10,Wunderground v.1.15,2013-05-02 02:05:00,
2013-05-01 21:15:00,42.1,29.2,30.55,North,354,7.0,7.0,60,0.00,,,0.10,Wunderground v.1.15,2013-05-02 02:15:00,
2013-05-01 21:20:00,42.0,29.1,30.55,North,11,7.0,10.0,60,0.00,,,0.10,Wunderground v.1.15,2013-05-02 02:20:00,
2013-05-01 21:30:00,41.8,28.9,30.55,North,11,8.0,8.0,60,0.00,,,0.10,Wunderground v.1.15,2013-05-02 02:30:00,
2013-05-01 21:35:00,41.6,29.1,30.55,NNW,338,8.0,8.0,61,0.00,,,0.10,Wunderground v.1.15,2013-05-02 02:35:00,
2013-05-01 21:45:00,41.5,29.4,30.55,North,359,8.0,11.0,62,0.00,,,0.10,Wunderground v.1.15,2013-05-02 02:45:00,
2013-05-01 21:55:00,41.3,29.6,30.55,NNE,26,8.0,9.0,63,0.00,,,0.10,Wunderground v.1.15,2013-05-02 02:55:00,
2013-05-01 22:05:00,41.0,29.4,30.56,NW,324,8.0,10.0,63,0.00,,,0.10,Wunderground v.1.15,2013-05-02 03:05:00,
2013-05-01 22:15:00,40.8,29.6,30.56,North,359,8.0,9.0,64,0.00,,,0.10,Wunderground v.1.15,2013-05-02 03:15:00,
2013-05-01 22:20:00,40.7,29.5,30.56,NW,319,8.0,8.0,64,0.00,,,0.10,Wunderground v.1.15,2013-05-02 03:20:00,
2013-05-01 22:30:00,40.5,29.3,30.57,NW,322,8.0,8.0,64,0.00,,,0.10,Wunderground v.1.15,2013-05-02 03:30:00,
2013-05-01 22:40:00,40.3,29.1,30.55,NE,39,9.0,13.0,64,0.00,,,0.10,Wunderground v.1.15,2013-05-02 03:40:00,
2013-05-01 22:45:00,40.2,29.4,30.55,North,11,10.0,13.0,65,0.00,,,0.10,Wunderground v.1.15,2013-05-02 03:45:00,
2013-05-01 22:55:00,40.2,29.4,30.55,North,359,8.0,11.0,65,0.00,,,0.10,Wunderground v.1.15,2013-05-02 03:55:00,
2013-05-01 23:00:00,40.2,29.4,30.56,North,359,8.0,8.0,65,0.00,,,0.10,Wunderground v.1.15,2013-05-02 04:00:00,
2013-05-01 23:05:00,40.2,29.0,30.56,North,11,8.0,10.0,64,0.00,,,0.10,Wunderground v.1.15,2013-05-02 04:05:00,
2013-05-01 23:10:00,40.1,28.9,30.56,NNW,343,9.0,14.0,64,0.00,,,0.10,Wunderground v.1.15,2013-05-02 04:10:00,
2013-05-01 23:15:00,40.2,29.0,30.56,North,4,9.0,14.0,64,0.00,,,0.10,Wunderground v.1.15,2013-05-02 04:15:00,
2013-05-01 23:20:00,40.2,29.0,30.56,North,354,9.0,9.0,64,0.00,,,0.10,Wunderground v.1.15,2013-05-02 04:20:00,
2013-05-01 23:30:00,40.1,28.9,30.57,North,354,8.0,8.0,64,0.00,,,0.10,Wunderground v.1.15,2013-05-02 04:30:00,
2013-05-01 23:35:00,40.0,28.8,30.57,North,4,8.0,8.0,64,0.00,,,0.10,Wunderground v.1.15,2013-05-02 04:35:00,
2013-05-01 23:45:00,40.0,29.2,30.57,NNW,345,8.0,10.0,65,0.00,,,0.10,Wunderground v.1.15,2013-05-02 04:45:00,
2013-05-01 23:50:00,39.9,29.1,30.57,NNE,12,8.0,8.0,65,0.00,,,0.10,Wunderground v.1.15,2013-05-02 04:50:00,